Weather in Ternopil

Ukraine / Ternopil District     49°33′21″N   25°35′26″E
temp.,
°C
wind,
m/s
gust,
m/s
humid.,
%
clouds,
%
prec.,
mm/h
press.,
hPa
HPBL,
m
15 may, sat
sat1500:00+10sw41089100 0.0 1007269
03:00+10sw4987100 0.0 1008331
06:00+10wsw51097100 0.4 1008583
09:00+10w6995100 0.6 1010652
12:00+10w489287 0.2 1012553
15:00+15wnw4569100 0.3 10111193
18:00+15w247444 0.1 1011455
21:00+11s33905 0.2 101133
16 may, sun
sun1600:00+10sse33925 0.0 101134
03:00+9se35925 0.0 101177
06:00+8se3894100 0.0 1010143
09:00+14se5980100 0.0 1010451
12:00+18se566843 0.0 1009896
15:00+19sse6863100 0.1 10071198
18:00+18sse797383 0.4 10061102
21:00+13ssw349092 1.6 100770
17 may, mon
mon1700:00+12wnw2694100 1.6 1007201
03:00+11nw2496100 4.7 1008165
06:00+11wnw2393100 0.0 100892
09:00+13wnw358464 0.0 1008442
12:00+17wnw336434 0.3 10071343
15:00+19w445743 0.5 10061618
18:00+18nnw23560 0.0 10041263
21:00+13ene228123 0.1 100513
18 may, tue
tue1800:00+11nw61194100 0.9 1006655
03:00+11wnw4797100 10.7 1006414
06:00+10wnw5109597 0.9 1007472
09:00+11wnw6108314 0.9 1009715
12:00+14wnw786994 0.1 10101338
15:00+16wnw685799 0.1 10091775
18:00+15wnw4664100 0.2 10101301
21:00+11w3582100 0.9 101295
19 may, wed
wed1900:00+9wnw349075 0.1 101370
03:00+8wnw22906 0.1 101227
06:00+7wsw1190100 0.0 101210
09:00+12nw1278100 0.0 1013273
12:00+15nne2263100 0.1 10111253
15:00+15ne3465100 1.0 10091081
18:00+13ne5779100 1.7 1009253
21:00+11n4791100 5.8 1009230